#timestamp,LO_Frequency,Hit,StdDev 
1569772815.5,286046999.7,N
1569772835.4,286047000.3,N
1569772855.2,286047002.2,N
1569772875.1,286047000.1,N
1569772876.0,286047000.1,N
1569772895.8,286047000.0,N
1569772915.6,286047000.4,N
1569772935.5,286047000.2,N
1569772955.3,286047000.4,N
1569772975.2,286047000.0,N
1569772995.9,286046998.5,N
1569773015.7,286046998.1,N
1569773035.6,286047000.3,N
1569773055.4,286047000.4,N
1569773075.2,286047000.7,N
1569773095.1,286046999.3,N
1569773096.0,286046999.3,N
1569773115.8,286046995.5,Y
1569773135.7,286046995.9,P
1569773155.5,286046993.5,N
1569773175.3,286046993.5,N
1569773195.2,286046992.2,N
1569773215.0,286046993.3,N
1569773215.9,286046993.3,N
1569773235.8,286046993.6,N
1569773255.6,286046993.7,N
1569773275.4,286046993.6,N
1569773295.3,286046993.6,N
1569773315.1,286046993.3,Y
1569773335.8,286046998.1,P
1569773355.7,286046998.1,N
1569773375.5,286046998.3,N
1569773395.4,286047000.5,N
1569773415.2,286046998.9,N
1569773435.0,286046999.4,N
1569773435.9,286046999.4,N
1569773455.8,286046998.9,N
1569773475.6,286046999.6,N
1569773495.4,286046996.8,N
1569773515.3,286046996.8,N
1569773535.1,286046997.4,N
1569773555.9,286046998.0,N
1569773575.7,286046997.0,N
1569773595.5,286046997.4,N
1569773615.4,286046995.5,Y
1569773635.2,286046997.1,P
1569773655.1,286046997.4,P
1569773656.0,286046997.4,P
1569773675.8,286046998.7,Y
1569773695.6,286047000.1,P
1569773715.5,286047000.2,N
1569773735.3,286047000.7,N
1569773755.1,286046998.3,N
1569773775.9,286047001.1,N
1569773795.7,286046998.9,N
1569773815.6,286046999.5,N
1569773835.4,286046999.1,N
1569773855.3,286046998.3,N
1569773875.1,286046998.2,N
1569773876.0,286046998.2,N
1569773895.8,286046998.2,N
1569773915.7,286046999.7,N
1569773935.5,286047000.9,N
1569773955.3,286046999.9,N
1569773975.2,286046999.7,N
1569773995.0,286046999.9,N
1569773995.9,286046999.9,N
1569774015.8,286047002.6,N
1569774035.6,286047000.7,N
1569774055.4,286047000.3,N
1569774075.3,286047000.2,N
1569774095.1,286046999.7,N
1569774115.9,286047001.0,N
1569774135.7,286047002.3,N
1569774155.5,286047011.9,Y
1569774205.4,286047001.3,E
1569774215.3,286047001.5,N
1569774235.2,286047001.4,P
1569774255.0,286047002.6,P
1569774255.9,286047002.6,Y
1569774275.8,286047001.2,P
1569774295.6,286046999.5,N
1569774315.4,286046998.8,N
1569774335.3,286046999.6,N
1569774355.1,286046998.2,N
1569774375.8,286047001.1,N
1569774395.7,286047000.2,N
1569774415.5,286047002.3,N
1569774435.4,286047002.2,N
1569774455.2,286047002.1,N
1569774475.0,286047000.3,N
1569774475.9,286047000.3,N
1569774495.8,286047000.2,N
1569774515.6,286047000.9,N
1569774535.5,286046999.7,N
1569774555.3,286046999.8,N
1569774575.1,286047002.5,N
1569774595.9,286047002.4,N
1569774615.7,286047000.1,N
1569774635.5,286047002.6,N
1569774655.4,286047002.4,N
1569774675.2,286047002.3,N
1569774695.1,286047002.7,N
1569774696.0,286047002.7,N
1569774715.8,286046998.2,N
1569774735.6,286047000.3,N
1569774755.5,286047001.0,N
1569774775.3,286047000.8,N
1569774795.2,286046998.7,N
1569774815.9,286047000.6,N
1569774835.7,286046999.7,N
1569774855.6,286047000.6,N
1569774875.4,286046996.9,N
1569774895.2,286046997.5,N
1569774915.1,286046997.6,N
1569774916.0,286046997.6,N
1569774935.8,286046998.0,N
1569774955.7,286046995.5,N
1569774975.5,286046996.3,N
1569774995.3,286046993.3,Y
1569775015.2,286046996.3,P
1569775035.0,286046995.7,N
1569775035.9,286046995.7,N
1569775055.8,286046999.5,N
1569775075.6,286046996.6,N
1569775095.4,286046999.1,N
1569775115.3,286046997.6,N
1569775135.1,286046996.4,N
1569775155.9,286046996.0,N
1569775175.7,286046995.3,Y
1569775195.5,286046999.2,P
1569775215.4,286046999.2,N
1569775235.2,286047000.9,N
1569775255.0,286047002.3,N
1569775255.9,286047002.3,N
1569775275.8,286047002.5,N
1569775295.6,286047002.0,N
1569775315.5,286047001.4,N
1569775335.3,286047000.2,N
1569775355.1,286047001.7,N
1569775375.9,286047001.9,N
1569775395.7,286047001.6,N
1569775415.6,286047002.1,N
1569775435.4,286047011.9,Y
1569775455.2,286046999.8,P
1569775475.1,286046998.1,P
1569775476.0,286046998.1,N
1569775495.8,286046998.1,N
1569775515.6,286047000.9,N
1569775535.5,286046998.5,N
1569775555.3,286046998.7,N
1569775575.2,286046999.4,N
1569775595.9,286047000.1,N
1569775615.7,286046999.8,N
1569775635.6,286047002.8,N
1569775655.4,286047002.8,N
1569775675.3,286047002.8,N
1569775695.1,286047002.0,N
1569775696.0,286047002.0,N
1569775715.8,286046999.8,N
1569775735.7,286047002.3,N
1569775755.5,286047002.0,N
1569775775.3,286047002.6,N
1569775795.2,286047002.1,N
1569775815.0,286047002.7,N
1569775815.9,286047002.7,N
1569775835.8,286047002.2,N
1569775855.6,286047002.3,N
1569775875.4,286046999.9,N
1569775895.3,286047002.7,N
1569775915.1,286047002.7,N
1569775935.9,286047000.1,N
1569775955.7,286047000.2,N
1569775975.5,286047000.8,N
1569775995.4,286047000.5,N
1569776015.2,286047001.5,N
1569776035.0,286047002.3,N
1569776036.0,286047002.3,N
1569776055.8,286047004.3,Y
1569776075.6,286047002.0,P
1569776095.5,286047001.5,P
1569776115.3,286047001.6,P
1569776135.1,286047004.4,Y
1569776155.9,286047001.9,P
1569776175.7,286047003.9,P
1569776195.6,286047003.5,P
1569776215.4,286047002.0,N
1569776235.2,286047001.5,N
1569776255.1,286047002.0,N
1569776256.0,286047002.0,N
1569776275.8,286047002.0,N
1569776295.7,286047002.3,N
1569776315.5,286047004.2,Y
1569776335.3,286047002.4,P
1569776355.2,286047002.8,P
1569776375.0,286046999.9,N
1569776375.9,286046999.9,N
1569776395.8,286047000.3,N
